Location: ??????????
(54.7560°N, 39.1389°E)
Time: 07:26:22
(UTC+00:00)

Cosmos 2341 Rocket - Pass Details

Date: 19 May 2025
Orbit: 966 x 1004 km, 82.9° (Epoch: 15 June)

Event Time Altitude Azimuth Distance (km) Brightness Sun altitude
Rises 18:05:37 0° 349° (N) 3,703 8.1 -4.6°
Reaches altitude 10° 18:08:13 10° 353° (N) 2,745 7.3 -4.9°
Maximum altitude 18:14:25 59° 73° (ENE) 1,117 4.2 -5.5°
Drops below altitude 10° 18:20:33 10° 153° (SSE) 2,708 5.7 -6.1°
Enters shadow 18:21:31 - 155° (SSE) 3,069 6.0 -6.2°
